Regional Weather Roundup
Issued by NWS Newport/Morehead, NC

Current Version | Previous Version | Graphics & Text | Print | Product List | Glossary Off
Versions: 1 2 3 4 5 6 7 8 9 10 11 12 13 14 15 16 17 18 19 20 21 22 23 24 25 26 27 28 29 30 31 32 33 34 35 36 37 38 39 40 41 42 43 44 45 46 47 48 49 50

000
ASUS42 KMHX 300822
RWRMHX
WEATHER ROUNDUP FOR EASTERN NORTH CAROLINA
NATIONAL WEATHER SERVICE NEWPORT/MOREHEAD CITY NC
400 AM EDT WED JUL 30 2014

NOTE: "FAIR" INDICATES FEW OR NO CLOUDS BELOW 12,000 FEET
WITH NO SIGNIFICANT WEATHER AND/OR OBSTRUCTIONS TO VISIBILITY

NCZ015>017-031-032-045>047-102-103-300900-
NORTH COAST

CITY           SKY/WX    TMP DP  RH WIND       PRES   REMARKS
EDENTON        CLEAR     63  62  96 CALM      29.99R
ELIZABETH CITY CLEAR     62  61  96 NW3       29.99R
KITTY HAWK     MOSUNNY   72  59  64 CALM      29.97S
MANTEO         NOT AVBL

$$

NCZ045>047-081-094-103-104-300900-
CENTRAL COAST

CITY           SKY/WX    TMP DP  RH WIND       PRES   REMARKS
FRISCO         CLOUDY    73  64  73 NE6       29.97R
SWANQUARTER      N/A     68 N/A N/A NE3       29.94S

$$

NCZ095-097-098-100-101-300900-
SOUTHERN COAST

CITY           SKY/WX    TMP DP  RH WIND       PRES   REMARKS
BEAUFORT       CLEAR     72  66  81 NE5       29.97R
CEDAR ISLAND     N/A     77 N/A N/A NE12      30.00S
JACKSONVILLE   CLEAR     70  67  90 N5        29.97S
NEWPORT        NOT AVBL
PINEY ISLAND   MOSUNNY   77  66  68 NE8       29.97R
WILMINGTON     CLEAR     70  68  93 N3        29.96S


$$

NCZ011>013-027>030-043-044-078>080-089-090>093-098-300900-
COASTAL PLAIN

CITY           SKY/WX    TMP DP  RH WIND       PRES   REMARKS
AHOSKIE        CLEAR     61  59  93 CALM      30.02R
CLINTON        CLEAR     65  64  96 CALM      29.99R
ELIZABETHTOWN  CLEAR     65  63  94 CALM      29.98S
GOLDSBORO      CLEAR     65  65  98 CALM      29.97S
GREENVILLE     CLEAR     64  63  94 CALM      30.01S
HAVELOCK       CLEAR     70  66  87 N3        29.98S
KENANSVILLE    CLEAR     63  61  94 CALM      29.99S
KINSTON        CLEAR     64  64  97 CALM      29.99S
NEW BERN       CLEAR     72  65  78 NE5       29.99S
RICHLANDS      CLEAR     64  61  88 CALM      29.98S
ROANOKE RAPIDS NOT AVBL
ROCKY MOUNT    CLEAR     62  61  96 N5        30.00R FOG
WASHINGTON     CLEAR     64  62  95 CALM      29.99S
WHITEVILLE     CLEAR     67  65  94 CALM      29.97S

$$

AMZ130-135-150-152-154-156-158-170-250-252-270-ANZ085-086-088-633-658-670-300900-
MARINE OBSERVATIONS

STATION/POSITION TIME  TEMP    WIND        PRES    WAVE   SWELL
                       AIR SEA DIR/SP/G            HT/PER HT/PER
                 (UTC) (F)     (DEG/KT/KT) (MB)    (FT/S) (FT/S)
CHESAPEAKE LIGHT NOT AVBL
BUOY 44014       0800   75 78   10/  8/ 12 1014.8    2/ 8   2/ 8
DUCK             0800   74 75   50/  6/  8 1014.5
2E DUCK          0800                        N/A     2/ 8
OREGON INLET     0800   74 79   50/  6/  9 1015.0
BUOY 44095       0800      78                N/A     3/ 8
20E OREGON INLET NOT AVBL
HATTERAS CG      0800   75 80   40/  7/  9 1015.3
DIAMOND BUOY     0800          VRB 12/ 14  1014.4    3/ 8   3/ 8
CAPE LOOKOUT     0800   77      50/ 12/ 14 1014.5
BEAUFORT LAB     0800   73 82   30/  3/  5 1014.3
30 SE NEW RIVER  0800   79 81   60/ 12/ 14 1014.5    3/ 5   2/ 8
5 SE WRIGHTSVILL 0800   76 81   80/ 10/ 14   N/A
BUOY 41002       0702   81 80  220/ 16/ 17 1013.1    6/ 7   3/ 8
BUOY 41004       0800   81 84   80/  6/ 10 1013.1    2/ 7   2/ 7

$$


USA.gov is the U.S. government's official web portal to all federal, state and local government web resources and services.